• In Deutschland
  • Länderverzeichnis
  • Für 7 Tage
  • Wassertemperatur
  • Satellitenkarten
  • Wetterkarte
  • Widgets
  • user-avatar
    Anmelden

    Stündliche Wetter Naftalan

    Heute, 30 April, Sonntag

    Zeit Temperatur Niederschläge Wind Luftdruck Luftfeuchtigkeit
    00:00 +12°C° 0 mm 1 m/S 766 mmHg 77%
    01:00 +12°C° 0 mm 1 m/S 765 mmHg 78%
    02:00 +12°C° 0 mm 1 m/S 765 mmHg 79%
    03:00 +11°C° 0 mm 1 m/S 765 mmHg 80%
    04:00 +12°C° 0 mm 1 m/S 765 mmHg 77%
    05:00 +13°C° 0 mm 1 m/S 765 mmHg 74%
    06:00 +14°C° 0 mm 1 m/S 765 mmHg 71%
    07:00 +16°C° 0 mm 2 m/S 765 mmHg 66%
    08:00 +18°C° 0 mm 2 m/S 765 mmHg 60%
    09:00 +20°C° 0 mm 2 m/S 765 mmHg 54%
    10:00 +23°C° 0 mm 2 m/S 765 mmHg 51%
    11:00 +24°C° 0 mm 1 m/S 765 mmHg 48%
    12:00 +25°C° 0 mm 1 m/S 764 mmHg 45%
    13:00 +26°C° 0 mm 2 m/S 764 mmHg 45%
    14:00 +26°C° 0 mm 3 m/S 764 mmHg 45%
    15:00 +26°C° 0 mm 4 m/S 763 mmHg 45%
    16:00 +24°C° 0 mm 3 m/S 763 mmHg 50%
    17:00 +22°C° 0 mm 3 m/S 763 mmHg 54%
    18:00 +20°C° 0 mm 3 m/S 763 mmHg 59%
    19:00 +18°C° 0 mm 2 m/S 763 mmHg 61%
    20:00 +17°C° 0 mm 2 m/S 763 mmHg 64%
    21:00 +15°C° 0 mm 1 m/S 763 mmHg 66%
    22:00 +15°C° 0 mm 1 m/S 764 mmHg 68%
    23:00 +14°C° 0 mm 1 m/S 764 mmHg 69%

    Morgen, 1 Mai, Montag

    Zeit Temperatur Niederschläge Wind Luftdruck Luftfeuchtigkeit
    00:00 +13°C° 0 mm 0 m/S 764 mmHg 71%
    01:00 +13°C° 0 mm 0 m/S 763 mmHg 72%
    02:00 +12°C° 0 mm 0 m/S 763 mmHg 74%
    03:00 +12°C° 0 mm 0 m/S 763 mmHg 76%
    04:00 +14°C° 0 mm 1 m/S 763 mmHg 73%
    05:00 +16°C° 0 mm 1 m/S 763 mmHg 70%
    06:00 +18°C° 0 mm 1 m/S 763 mmHg 67%
    07:00 +21°C° 0 mm 1 m/S 764 mmHg 61%
    08:00 +23°C° 0 mm 1 m/S 764 mmHg 54%
    09:00 +25°C° 0 mm 1 m/S 764 mmHg 48%
    10:00 +27°C° 0 mm 1 m/S 764 mmHg 45%
    11:00 +28°C° 0 mm 2 m/S 764 mmHg 41%
    12:00 +29°C° 0 mm 2 m/S 764 mmHg 38%
    13:00 +29°C° 0 mm 3 m/S 763 mmHg 39%
    14:00 +29°C° 0 mm 4 m/S 763 mmHg 41%
    15:00 +29°C° 0 mm 5 m/S 763 mmHg 42%
    16:00 +27°C° 0 mm 4 m/S 763 mmHg 47%
    17:00 +25°C° 0 mm 4 m/S 763 mmHg 52%
    18:00 +22°C° 0 mm 4 m/S 763 mmHg 57%
    19:00 +20°C° 0 mm 3 m/S 763 mmHg 58%
    20:00 +19°C° 0 mm 3 m/S 764 mmHg 60%
    21:00 +17°C° 0 mm 3 m/S 764 mmHg 61%
    22:00 +17°C° 0 mm 2 m/S 764 mmHg 61%
    23:00 +16°C° 0 mm 2 m/S 764 mmHg 61%

    übermorgen, 2 Mai, Dienstag

    Zeit Temperatur Niederschläge Wind Luftdruck Luftfeuchtigkeit
    00:00 +16°C° 0 mm 2 m/S 764 mmHg 61%
    01:00 +16°C° 0 mm 2 m/S 764 mmHg 61%
    02:00 +16°C° 0 mm 2 m/S 763 mmHg 61%
    03:00 +16°C° 0 mm 1 m/S 763 mmHg 61%
    04:00 +18°C° 0 mm 1 m/S 763 mmHg 60%
    05:00 +18°C° 0 mm 1 m/S 763 mmHg 59%
    06:00 +19°C° 0 mm 1 m/S 763 mmHg 58%
    07:00 +21°C° 0 mm 1 m/S 763 mmHg 52%
    08:00 +23°C° 0 mm 1 m/S 764 mmHg 45%
    09:00 +25°C° 0 mm 1 m/S 764 mmHg 39%
    10:00 +26°C° 0 mm 1 m/S 763 mmHg 35%
    11:00 +28°C° 0 mm 2 m/S 763 mmHg 32%
    12:00 +29°C° 0 mm 3 m/S 763 mmHg 29%
    13:00 +29°C° 0 mm 3 m/S 762 mmHg 29%
    14:00 +29°C° 0 mm 4 m/S 762 mmHg 30%
    15:00 +28°C° 0 mm 4 m/S 761 mmHg 30%
    16:00 +26°C° 0 mm 4 m/S 761 mmHg 36%
    17:00 +24°C° 0 mm 3 m/S 761 mmHg 42%
    18:00 +21°C° 0 mm 3 m/S 761 mmHg 49%
    19:00 +21°C° 0,2 mm 3 m/S 762 mmHg 52%
    20:00 +20°C° 0,2 mm 2 m/S 762 mmHg 55%
    21:00 +19°C° 0,2 mm 2 m/S 762 mmHg 59%
    22:00 +18°C° 0 mm 2 m/S 762 mmHg 61%
    23:00 +19°C° 0 mm 1 m/S 762 mmHg 63%

    3 Mai, Mittwoch

    Zeit Temperatur Niederschläge Wind Luftdruck Luftfeuchtigkeit
    00:00 +18°C° 0 mm 1 m/S 761 mmHg 65%
    01:00 +18°C° 0 mm 1 m/S 761 mmHg 64%
    02:00 +18°C° 0 mm 1 m/S 761 mmHg 63%
    03:00 +18°C° 0 mm 1 m/S 760 mmHg 62%
    04:00 +19°C° 0 mm 1 m/S 760 mmHg 61%
    05:00 +20°C° 0 mm 1 m/S 760 mmHg 60%
    06:00 +20°C° 0 mm 1 m/S 760 mmHg 59%
    07:00 +22°C° 0 mm 1 m/S 760 mmHg 54%
    08:00 +24°C° 0 mm 1 m/S 760 mmHg 49%
    09:00 +26°C° 0 mm 2 m/S 760 mmHg 45%
    10:00 +27°C° 0 mm 1 m/S 760 mmHg 42%
    11:00 +29°C° 0 mm 1 m/S 760 mmHg 40%
    12:00 +30°C° 0 mm 1 m/S 759 mmHg 37%
    13:00 +30°C° 0 mm 2 m/S 759 mmHg 37%
    14:00 +31°C° 0 mm 3 m/S 759 mmHg 36%
    15:00 +31°C° 0 mm 3 m/S 758 mmHg 36%
    16:00 +29°C° 0,1 mm 3 m/S 758 mmHg 43%
    17:00 +27°C° 0,1 mm 3 m/S 758 mmHg 50%
    18:00 +25°C° 0,1 mm 3 m/S 758 mmHg 57%
    19:00 +22°C° 0,1 mm 3 m/S 759 mmHg 61%
    20:00 +21°C° 0,1 mm 2 m/S 759 mmHg 65%
    21:00 +19°C° 0,1 mm 2 m/S 759 mmHg 68%
    22:00 +20°C° 0 mm 1 m/S 759 mmHg 68%
    23:00 +20°C° 0 mm 1 m/S 759 mmHg 68%

    4 Mai, Donnerstag

    Zeit Temperatur Niederschläge Wind Luftdruck Luftfeuchtigkeit
    00:00 +20°C° 0 mm 1 m/S 759 mmHg 68%
    01:00 +18°C° 0 mm 2 m/S 759 mmHg 68%
    02:00 +18°C° 0 mm 3 m/S 759 mmHg 67%
    03:00 +18°C° 0 mm 4 m/S 759 mmHg 67%
    04:00 +18°C° 0 mm 4 m/S 759 mmHg 66%
    05:00 +18°C° 0 mm 4 m/S 759 mmHg 65%
    06:00 +18°C° 0 mm 4 m/S 759 mmHg 64%
    07:00 +20°C° 0 mm 3 m/S 760 mmHg 59%
    08:00 +21°C° 0 mm 3 m/S 760 mmHg 54%
    09:00 +24°C° 0 mm 3 m/S 760 mmHg 49%
    10:00 +25°C° 0,1 mm 3 m/S 760 mmHg 46%
    11:00 +27°C° 0,1 mm 3 m/S 760 mmHg 44%
    12:00 +28°C° 0,1 mm 3 m/S 760 mmHg 41%
    13:00 +28°C° 0 mm 4 m/S 760 mmHg 42%
    14:00 +28°C° 0 mm 4 m/S 760 mmHg 44%
    15:00 +28°C° 0 mm 5 m/S 760 mmHg 45%
    16:00 +26°C° 0 mm 4 m/S 760 mmHg 51%
    17:00 +25°C° 0 mm 4 m/S 760 mmHg 56%
    18:00 +22°C° 0 mm 4 m/S 760 mmHg 62%
    19:00 +20°C° 0 mm 4 m/S 760 mmHg 65%
    20:00 +19°C° 0 mm 3 m/S 761 mmHg 68%
    21:00 +18°C° 0 mm 3 m/S 761 mmHg 71%
    22:00 +17°C° 0 mm 2 m/S 761 mmHg 72%
    23:00 +17°C° 0 mm 2 m/S 761 mmHg 72%

    5 Mai, Freitag

    Zeit Temperatur Niederschläge Wind Luftdruck Luftfeuchtigkeit
    00:00 +17°C° 0 mm 2 m/S 761 mmHg 72%
    01:00 +16°C° 0 mm 2 m/S 761 mmHg 73%
    02:00 +16°C° 0 mm 2 m/S 761 mmHg 74%
    03:00 +16°C° 0 mm 2 m/S 761 mmHg 75%
    04:00 +16°C° 0 mm 2 m/S 761 mmHg 74%
    05:00 +17°C° 0 mm 2 m/S 762 mmHg 72%
    06:00 +18°C° 0 mm 2 m/S 762 mmHg 70%
    07:00 +20°C° 0 mm 2 m/S 762 mmHg 65%
    08:00 +22°C° 0 mm 3 m/S 762 mmHg 59%
    09:00 +25°C° 0 mm 3 m/S 763 mmHg 54%
    10:00 +26°C° 0 mm 4 m/S 762 mmHg 52%
    11:00 +27°C° 0 mm 4 m/S 762 mmHg 50%
    12:00 +28°C° 0 mm 5 m/S 762 mmHg 48%
    13:00 +27°C° 0 mm 5 m/S 761 mmHg 49%
    14:00 +27°C° 0 mm 5 m/S 761 mmHg 49%
    15:00 +27°C° 0 mm 5 m/S 760 mmHg 50%
    16:00 +25°C° 0 mm 5 m/S 761 mmHg 55%
    17:00 +22°C° 0 mm 5 m/S 761 mmHg 60%
    18:00 +21°C° 0 mm 5 m/S 761 mmHg 64%
    19:00 +20°C° 0,1 mm 5 m/S 761 mmHg 67%
    20:00 +19°C° 0,1 mm 5 m/S 762 mmHg 70%
    21:00 +17°C° 0,1 mm 5 m/S 762 mmHg 73%
    22:00 +17°C° 0,1 mm 4 m/S 762 mmHg 75%
    23:00 +17°C° 0,1 mm 4 m/S 762 mmHg 76%
    Mehr zeigen